Claremore, OK

10:31 AM CDT on August 16, 2017 (GMT -0500)
Claremore Regional

Weather History for KGCM - April, 2013

Change the Weather History Date:

Tuesday, April 30, 2013

  Actual Average (KTUL) Record (KTUL)
Temperature  
Mean Temperature 68 °F -  
Max Temperature 80 °F 74 °F 91 °F (1959)
Min Temperature 55 °F 54 °F 35 °F (1908)
Cooling Degree Days 2    
Growing Degree Days 18 (Base 50)    
Moisture  
Dew Point 54 °F    
Average Humidity 60    
Maximum Humidity 94    
Minimum Humidity 34    
Precipitation  
Precipitation 0.00 in - - ()
Sea Level Pressure  
Sea Level Pressure 29.82 in    
Wind  
Wind Speed 11 mph (South)    
Max Wind Speed 22 mph    
Max Gust Speed 29 mph    
Visibility 10 miles    
Events      
Averages and records for this station are not official NWS values.
T = Trace of Precipitation, MM = Missing Value Source: NWS Daily Summary

Daily Weather History Graph

Daily Weather History Graph

Search for Another Location

Airport or City:

Trip Planner

Search our weather history database for the weather conditions in past years. The results will help you decide how hot, cold, wet, or windy it might be!

Date:

Astronomy

Apr. 30, 2013 Rise Set
Actual Time 6:29 AM CDT 8:09 PM CDT
Civil Twilight 6:02 AM CDT 8:36 PM CDT
Nautical Twilight 5:29 AM CDT 9:09 PM CDT
Astronomical Twilight 4:53 AM CDT 9:45 PM CDT
Moon 12:31 AM CDT (4/30) 11:01 AM CDT (4/30)
Length of Visible Light 14h 34m
Length of Day
13h 39m
Waning Gibbous, 70% of the Moon is Illuminated
Apr 30
Waning Gibbous
May 2
Last Quarter
May 9
New
May 17
First Quarter
May 24
Full

Hourly Weather History & Observations

Time (CDT) Temp. Heat Index Dew Point Humidity Pressure Visibility Wind Dir Wind Speed Gust Speed Precip Events Conditions
12:15 AM 64.4 °F - 53.6 °F 68% 29.79 in 10.0 mi South 10.4 mph 16.1 mph N/A   Clear
12:35 AM 64.4 °F - 55.4 °F 73% 29.80 in 10.0 mi South 11.5 mph - N/A   Clear
12:55 AM 64.4 °F - 55.4 °F 73% 29.80 in 10.0 mi South 10.4 mph - N/A   Clear
1:15 AM 64.4 °F - 55.4 °F 73% 29.80 in 10.0 mi South 10.4 mph - N/A   Clear
1:35 AM 62.6 °F - 55.4 °F 77% 29.80 in 10.0 mi South 6.9 mph - N/A   Clear
1:55 AM 62.6 °F - 55.4 °F 77% 29.80 in 10.0 mi South 5.8 mph - N/A   Clear
2:15 AM 60.8 °F - 55.4 °F 82% 29.80 in 10.0 mi SSE 6.9 mph - N/A   Clear
2:35 AM 60.8 °F - 55.4 °F 82% 29.80 in 10.0 mi South 8.1 mph - N/A   Clear
2:55 AM 60.8 °F - 55.4 °F 82% 29.80 in 10.0 mi South 6.9 mph - N/A   Clear
3:15 AM 60.8 °F - 53.6 °F 77% 29.80 in 10.0 mi South 8.1 mph - N/A   Clear
3:35 AM 62.6 °F - 53.6 °F 72% 29.81 in 10.0 mi South 10.4 mph - N/A   Clear
3:55 AM 62.6 °F - 53.6 °F 72% 29.81 in 10.0 mi South 5.8 mph 16.1 mph N/A   Clear
4:15 AM 59.0 °F - 53.6 °F 82% 29.82 in 10.0 mi SSE 6.9 mph - N/A   Clear
4:55 AM 55.4 °F - 53.6 °F 94% 29.82 in 10.0 mi SSE 5.8 mph - N/A   Clear
5:15 AM 57.2 °F - 53.6 °F 88% 29.83 in 10.0 mi South 8.1 mph - N/A   Clear
5:35 AM 57.2 °F - 53.6 °F 88% 29.83 in 10.0 mi South 5.8 mph - N/A   Clear
5:55 AM 57.2 °F - 53.6 °F 88% 29.84 in 10.0 mi South 5.8 mph - N/A   Clear
6:15 AM 57.2 °F - 51.8 °F 82% 29.84 in 10.0 mi South 8.1 mph - N/A   Clear
6:35 AM 60.8 °F - 53.6 °F 77% 29.85 in 10.0 mi SSW 11.5 mph - N/A   Clear
6:55 AM 60.8 °F - 53.6 °F 77% 29.85 in 10.0 mi South 9.2 mph - N/A   Clear
7:15 AM 60.8 °F - 53.6 °F 77% 29.86 in 10.0 mi South 9.2 mph - N/A   Clear
7:35 AM 60.8 °F - 53.6 °F 77% 29.86 in 10.0 mi SSE 4.6 mph - N/A   Clear
7:55 AM 62.6 °F - 53.6 °F 72% 29.86 in 10.0 mi South 8.1 mph - N/A   Clear
8:15 AM 62.6 °F - 55.4 °F 77% 29.86 in 10.0 mi South 9.2 mph - N/A   Clear
8:35 AM 64.4 °F - 55.4 °F 73% 29.86 in 10.0 mi South 9.2 mph - N/A   Clear
8:55 AM 68.0 °F - 55.4 °F 64% 29.86 in 10.0 mi South 10.4 mph - N/A   Clear
9:15 AM 68.0 °F - 57.2 °F 68% 29.86 in 10.0 mi South 11.5 mph - N/A   Clear
9:35 AM 69.8 °F - 59.0 °F 68% 29.86 in 10.0 mi SSW 12.7 mph 20.7 mph N/A   Clear
9:55 AM 71.6 °F - 59.0 °F 64% 29.86 in 10.0 mi South 13.8 mph 19.6 mph N/A   Clear
10:15 AM 73.4 °F - 59.0 °F 61% 29.85 in 10.0 mi South 20.7 mph 26.5 mph N/A   Clear
10:35 AM 73.4 °F - 59.0 °F 61% 29.85 in 10.0 mi South 19.6 mph 27.6 mph N/A   Clear
10:55 AM 75.2 °F - 59.0 °F 57% 29.85 in 10.0 mi South 21.9 mph 26.5 mph N/A   Clear
11:15 AM 75.2 °F - 57.2 °F 53% 29.85 in 10.0 mi South 19.6 mph 27.6 mph N/A   Clear
11:35 AM 77.0 °F - 55.4 °F 47% 29.85 in 10.0 mi South 20.7 mph 25.3 mph N/A   Clear
11:55 AM 77.0 °F - 53.6 °F 44% 29.85 in 10.0 mi South 20.7 mph 27.6 mph N/A   Clear
12:15 PM 77.0 °F - 55.4 °F 47% 29.84 in 10.0 mi South 17.3 mph 26.5 mph N/A   Clear
12:35 PM 78.8 °F - 53.6 °F 42% 29.83 in 10.0 mi South 17.3 mph 25.3 mph N/A   Clear
12:55 PM 78.8 °F - 53.6 °F 42% 29.83 in 10.0 mi South 21.9 mph 27.6 mph N/A   Clear
1:15 PM 78.8 °F - 55.4 °F 44% 29.82 in 10.0 mi South 15.0 mph 21.9 mph N/A   Clear
1:35 PM 78.8 °F - 55.4 °F 44% 29.82 in 10.0 mi SSE 17.3 mph 23.0 mph N/A   Clear
1:55 PM 78.8 °F - 57.2 °F 47% 29.82 in 10.0 mi SSE 15.0 mph 24.2 mph N/A   Clear
2:15 PM 78.8 °F - 55.4 °F 44% 29.82 in 10.0 mi South 18.4 mph 28.8 mph N/A   Clear
2:35 PM 80.6 °F 80.5 °F 55.4 °F 42% 29.82 in 10.0 mi South 18.4 mph 27.6 mph N/A   Clear
2:55 PM 80.6 °F 80.3 °F 53.6 °F 39% 29.82 in 10.0 mi South 18.4 mph 23.0 mph N/A   Clear
3:15 PM 80.6 °F - 51.8 °F 37% 29.81 in 10.0 mi SSE 16.1 mph 24.2 mph N/A   Clear
3:35 PM 80.6 °F - 51.8 °F 37% 29.81 in 10.0 mi South 18.4 mph 25.3 mph N/A   Clear
3:55 PM 80.6 °F - 51.8 °F 37% 29.80 in 10.0 mi SSE 17.3 mph 25.3 mph N/A   Clear
4:15 PM 80.6 °F - 51.8 °F 37% 29.80 in 10.0 mi South 18.4 mph 24.2 mph N/A   Clear
4:35 PM 80.6 °F - 50.0 °F 34% 29.80 in 10.0 mi SSE 17.3 mph 25.3 mph N/A   Clear
4:55 PM 80.6 °F - 50.0 °F 34% 29.79 in 10.0 mi South 18.4 mph 25.3 mph N/A   Clear
5:15 PM 80.6 °F - 50.0 °F 34% 29.79 in 10.0 mi South 18.4 mph 26.5 mph N/A   Clear
5:35 PM 80.6 °F - 50.0 °F 34% 29.79 in 10.0 mi South 15.0 mph 21.9 mph N/A   Clear
5:55 PM 80.6 °F - 51.8 °F 37% 29.79 in 10.0 mi South 15.0 mph - N/A   Clear
6:15 PM 80.6 °F - 51.8 °F 37% 29.78 in 10.0 mi South 13.8 mph 18.4 mph N/A   Clear
6:35 PM 80.6 °F - 51.8 °F 37% 29.78 in 10.0 mi SSE 10.4 mph 18.4 mph N/A   Clear
6:55 PM 78.8 °F - 53.6 °F 42% 29.79 in 10.0 mi SSE 9.2 mph - N/A   Clear
7:15 PM 77.0 °F - 51.8 °F 41% 29.80 in 10.0 mi SSE 9.2 mph - N/A   Clear
7:35 PM 75.2 °F - 53.6 °F 47% 29.80 in 10.0 mi SSE 5.8 mph - N/A   Clear
7:55 PM 71.6 °F - 53.6 °F 53% 29.81 in 10.0 mi South 4.6 mph - N/A   Clear
8:15 PM 69.8 °F - 53.6 °F 56% 29.81 in 10.0 mi SSE 8.1 mph - N/A   Clear
8:35 PM 68.0 °F - 53.6 °F 60% 29.81 in 10.0 mi SE 6.9 mph - N/A   Clear
8:55 PM 68.0 °F - 53.6 °F 60% 29.82 in 10.0 mi Calm Calm - N/A   Clear
9:15 PM 68.0 °F - 53.6 °F 60% 29.83 in 10.0 mi SE 4.6 mph - N/A   Clear
9:35 PM 66.2 °F - 53.6 °F 64% 29.83 in 10.0 mi SE 5.8 mph - N/A   Clear
9:55 PM 66.2 °F - 51.8 °F 60% 29.84 in 10.0 mi South 5.8 mph - N/A   Clear
10:35 PM 64.4 °F - 51.8 °F 64% 29.85 in 10.0 mi South 6.9 mph - N/A   Clear
10:55 PM 64.4 °F - 51.8 °F 64% 29.85 in 10.0 mi SSE 10.4 mph - N/A   Clear
11:15 PM 62.6 °F - 51.8 °F 68% 29.85 in 10.0 mi SSE 8.1 mph - N/A   Clear
11:35 PM 64.4 °F - 51.8 °F 64% 29.86 in 10.0 mi SSE 8.1 mph - N/A   Clear
11:55 PM 62.6 °F - 51.8 °F 68% 29.86 in 10.0 mi SE 8.1 mph - N/A   Clear